Find Starlink 37387

NORAD ID: 68973 Int'l Des: 2026-099 Owner: SPXS Country: US Constellation: starlink operational
LEOCIRCULAR

現在のビュー

3D地球を読み込み中...

About Starlink 37387

Starlink 37387 (NORAD 68973) is a starlink constellation satellite (v2 mini) launched May 1, 2026 by SPXS of US. It operates in LEO, CIRCULAR orbit with a mass of 575.00 kg.

Starlink 37387について

説明を読み込み中...

次回通過

Passes for default location (London). Set your location on the main map for personalized predictions.

高度履歴

Loading altitude history...

軌道要素

1 68973U 26099Y 26170.91668981 .00050416 00000-0 14464-2 0 9990
2 68973 53.1592 148.2088 0001411 87.2035 2.6195 15.35401921 5967
Epoch: Jun 19, 2026 • Age: 11 hours

現在のステータス

高度 465.0 km
速度 7.64 km/s
衛星直下点 52.40°N, 179.35°E
打ち上げ日 May 1, 2026
運用期間 0.1 years
タイプ internet

技術仕様

分類 Payload
質量 575.00 kg
乾燥質量 530.00 kg
総質量 575.00 kg
長さ 0.30 m
直径 4.10 m
スパン 29.00 m
形状 Box + pan
製造者 SPXS
バスタイプ Starlink V2MO
フェーズステータス In Orbit
所有者/国 SPXS/US

Most Searched